This is the latest recevied weather packets stored in our database for station/object 9A3SWO. If no packets are shown the sender has not sent any weather packets the latest 10 day(s).
| Time | Temp. | Humidity | Pressure | Rain* | Wind** | Luminosity | Snow |
|---|---|---|---|---|---|---|---|
| 1777819402 | 23.33° C | 35% | 1017.3 hPa | - | - | - | - |
| 1777818802 | 23.33° C | 36% | 1017.4 hPa | - | - | - | - |
| 1777818203 | 22.78° C | 35% | 1017.4 hPa | - | - | - | - |
| 1777817603 | 22.78° C | 36% | 1017.5 hPa | - | - | - | - |
| 1777817003 | 22.78° C | 36% | 1017.7 hPa | - | - | - | - |
| 1777816403 | 22.78° C | 35% | 1017.8 hPa | - | - | - | - |
| 1777815802 | 22.78° C | 35% | 1017.9 hPa | - | - | - | - |
| 1777815203 | 22.78° C | 36% | 1017.8 hPa | - | - | - | - |
| 1777814602 | 22.78° C | 34% | 1018 hPa | - | - | - | - |
| 1777814003 | 22.78° C | 34% | 1018 hPa | - | - | - | - |
| 1777813402 | 22.78° C | 38% | 1018.2 hPa | - | - | - | - |
| 1777812802 | 22.78° C | 34% | 1018.4 hPa | - | - | - | - |
| 1777812203 | 22.78° C | 34% | 1018.5 hPa | - | - | - | - |
| 1777811602 | 22.22° C | 33% | 1018.6 hPa | - | - | - | - |
| 1777811003 | 22.22° C | 34% | 1018.8 hPa | - | - | - | - |
| 1777810402 | 22.22° C | 38% | 1018.8 hPa | - | - | - | - |
| 1777809802 | 22.22° C | 42% | 1018.9 hPa | - | - | - | - |
| 1777809202 | 22.22° C | 48% | 1019 hPa | - | - | - | - |
| 1777808602 | 22.22° C | 49% | 1019 hPa | - | - | - | - |
| 1777808001 | 22.22° C | 49% | 1019 hPa | - | - | - | - |
| 1777807402 | 21.67° C | 49% | 1019.2 hPa | - | - | - | - |
| 1777806802 | 21.67° C | 49% | 1019.3 hPa | - | - | - | - |
| 1777806202 | 21.67° C | 50% | 1019.4 hPa | - | - | - | - |
| 1777805602 | 21.67° C | 51% | 1019.5 hPa | - | - | - | - |
| 1777805002 | 21.67° C | 51% | 1019.6 hPa | - | - | - | - |
* Rain since midnight (hover to see other rain measurements)
** Current wind speed in m/s (hover to see current wind gust speed)